EW1476 Weather Reports


Display with metric or nautical units.
time (UTC)temp
F
wind
direction
speed
MPH
gust
MPH
rain 1hr
in
rain 24hr
in
rain mn
in
humidity
%
barometer
mb
20260906103014 61 283 0.0 0.0 0.00 0.00 0.00 89 1015.2
20260906101518 62 283 0.0 0.0 0.00 0.00 0.00 88 1014.9
20260906100005 61 283 0.0 0.0 0.00 0.00 0.00 89 1014.7
20260906094528 61 283 0.0 0.0 0.00 0.00 0.00 90 1014.7
20260906093034 59 283 0.0 0.0 0.00 0.00 0.00 92 1014.6
20260906091518 60 283 0.0 1.0 0.00 0.00 0.00 92 1014.5
20260906090035 59 283 0.0 1.0 0.00 0.00 0.00 92 1014.4
20260906084512 60 283 0.0 0.0 0.00 0.00 0.00 92 1014.3
20260906083007 60 283 0.0 0.0 0.00 0.00 0.00 91 1014.4
20260906081529 60 283 0.0 0.0 0.00 0.00 0.00 92 1014.5
20260906080028 60 283 0.0 0.0 0.00 0.00 0.00 92 1014.3
20260906074524 61 283 0.0 0.0 0.00 0.00 0.00 91 1014.1
20260906073019 61 283 0.0 0.0 0.00 0.00 0.00 90 1014.1
20260906071512 60 283 0.0 0.0 0.00 0.00 0.00 92 1014.1
20260906070036 60 283 0.0 0.0 0.00 0.00 0.00 92 1014.1
20260906064532 61 283 0.0 0.0 0.00 0.00 0.00 92 1014.1
20260906063042 61 283 0.0 0.0 0.00 0.00 0.00 92 1014.0
20260906061528 60 283 0.0 0.0 0.00 0.00 0.00 93 1014.2
20260906060023 61 283 0.0 0.0 0.00 0.00 0.00 93 1014.1
20260906054517 61 283 0.0 0.0 0.00 0.00 0.00 93 1014.2
20260906053034 61 283 0.0 0.0 0.00 0.00 0.00 93 1014.2
20260906051549 61 283 0.0 0.0 0.00 0.00 0.00 93 1014.3
20260906050039 61 283 0.0 0.0 0.00 0.00 0.00 92 1014.3
20260906044529 62 283 0.0 0.0 0.00 0.00 0.00 92 1014.5
20260906043023 62 283 0.0 0.0 0.00 0.00 0.00 92 1014.5
20260906041523 62 283 0.0 0.0 0.00 0.00 0.00 92 1014.5
20260906040037 63 283 0.0 0.0 0.00 0.00 0.00 92 1014.4
20260906034511 63 283 0.0 0.0 0.00 0.00 0.00 92 1014.5
20260906033010 63 283 0.0 0.0 0.00 0.00 0.00 92 1014.6
20260906031509 64 283 0.0 0.0 0.00 0.00 0.00 92 1014.5
20260906030003 64 283 0.0 0.0 0.00 0.00 0.00 92 1014.5
20260906024504 65 283 0.0 0.0 0.00 0.00 0.00 91 1014.4
20260906023017 65 283 0.0 0.0 0.00 0.00 0.00 91 1014.3
20260906021515 66 283 0.0 0.0 0.00 0.00 0.00 91 1014.3
20260906020017 66 283 0.0 0.0 0.00 0.00 0.00 91 1014.3
20260906014508 67 283 0.0 0.0 0.00 0.00 0.00 90 1014.1
20260906013007 67 283 0.0 0.0 0.00 0.00 0.00 89 1013.7
20260906011504 68 283 0.0 0.0 0.00 0.00 0.00 89 1013.6
20260906010025 69 283 0.0 0.0 0.00 0.00 0.00 88 1013.5
20260906004518 69 283 0.0 0.0 0.00 0.00 0.00 88 1013.5
20260906003012 69 283 0.0 0.0 0.00 0.00 0.00 86 1013.4
20260906001511 70 283 0.0 0.0 0.00 0.00 0.00 86 1013.2
20260906000007 71 283 0.0 0.0 0.00 0.00 0.00 84 1013.1
20260905234530 71 283 0.0 0.0 0.00 0.00 0.00 83 1013.0
20260905233023 73 283 0.0 0.0 0.00 0.00 0.00 80 1012.9
20260905231523 74 283 0.0 0.0 0.00 0.00 0.00 80 1012.8
20260905230021 74 283 0.0 0.0 0.00 0.00 0.00 76 1012.6
20260905224511 75 284 0.0 0.0 0.00 0.00 0.00 76 1012.5
20260905223008 75 284 0.0 0.0 0.00 0.00 0.00 75 1012.5
20260905221532 75 284 0.0 0.0 0.00 0.00 0.00 75 1012.4
20260905220026 75 284 0.0 0.0 0.00 0.00 0.00 72 1012.3
20260905214529 76 284 0.0 0.0 0.00 0.00 0.00 73 1012.3
20260905213020 76 284 0.0 1.0 0.00 0.00 0.00 70 1012.0
20260905211516 76 284 0.0 0.0 0.00 0.00 0.00 72 1011.7
20260905210013 77 285 0.0 1.0 0.00 0.00 0.00 70 1011.8
20260905204535 77 285 0.0 1.0 0.00 0.00 0.00 70 1011.9
20260905203029 77 283 0.0 0.0 0.00 0.00 0.00 70 1012.0
20260905201529 77 284 0.0 1.0 0.00 0.00 0.00 71 1012.1
20260905200024 76 283 0.0 0.0 0.00 0.00 0.00 70 1012.1
20260905194519 76 283 0.0 0.0 0.00 0.00 0.00 74 1012.3
20260905193035 76 283 0.0 0.0 0.00 0.00 0.00 73 1012.3
20260905191540 76 283 0.0 1.0 0.00 0.00 0.00 73 1012.4
20260905190033 75 284 0.0 0.0 0.00 0.00 0.00 75 1012.4
20260905184527 75 284 0.0 0.0 0.00 0.00 0.00 74 1012.7
20260905183023 74 284 0.0 0.0 0.00 0.00 0.00 75 1013.1
20260905181523 75 284 0.0 0.0 0.00 0.00 0.00 75 1013.0
20260905180031 74 284 0.0 1.0 0.00 0.00 0.00 74 1013.1
20260905174512 74 283 0.0 1.0 0.00 0.00 0.00 78 1013.3
20260905173005 75 283 0.0 0.0 0.00 0.00 0.00 78 1013.3
20260905171505 75 283 0.0 2.0 0.00 0.00 0.00 77 1013.5
20260905170004 74 283 0.0 0.0 0.00 0.00 0.00 79 1013.7
20260905164505 74 283 0.0 0.0 0.00 0.00 0.00 78 1013.5
20260905163004 74 283 0.0 0.0 0.00 0.00 0.00 78 1013.6
20260905161506 74 283 0.0 0.0 0.00 0.00 0.00 79 1013.7
20260905160008 74 283 0.0 0.0 0.00 0.00 0.00 80 1013.8
20260905154507 74 283 0.0 0.0 0.00 0.00 0.00 79 1014.0
20260905153007 74 283 0.0 0.0 0.00 0.00 0.00 78 1014.2
20260905151506 74 283 0.0 0.0 0.00 0.00 0.00 80 1014.4
20260905150008 74 283 0.0 0.0 0.00 0.00 0.00 80 1014.4
20260905144507 74 283 0.0 0.0 0.00 0.00 0.00 80 1014.1
20260905143009 74 283 0.0 0.0 0.00 0.00 0.00 81 1014.0
20260905141510 73 283 0.0 0.0 0.00 0.00 0.00 81 1013.7
20260905140007 73 283 0.0 0.0 0.00 0.00 0.00 82 1013.5
20260905134505 73 283 0.0 0.0 0.00 0.00 0.00 82 1013.4
20260905133011 72 283 0.0 0.0 0.00 0.00 0.00 84 1013.6
20260905131528 72 283 0.0 0.0 0.00 0.00 0.00 84 1013.6
20260905130014 72 283 0.0 0.0 0.00 0.00 0.00 86 1013.6
20260905124514 71 283 0.0 0.0 0.00 0.00 0.00 87 1013.3
20260905123012 71 283 0.0 0.0 0.00 0.00 0.00 88 1013.1
20260905121508 71 283 0.0 0.0 0.00 0.00 0.00 90 1013.2
20260905120023 71 283 0.0 0.0 0.00 0.00 0.00 91 1013.2
20260905114520 70 283 0.0 0.0 0.00 0.00 0.00 91 1013.1
20260905113023 70 283 0.0 0.0 0.00 0.00 0.00 91 1013.0
20260905111521 70 283 0.0 0.0 0.00 0.00 0.00 91 1012.9
20260905110015 70 283 0.0 0.0 0.00 0.00 0.00 91 1012.5
20260905104523 70 283 0.0 0.0 0.00 0.00 0.00 92 1012.4